Inquirer Daily News

Weather

Get conditions and forecasts for any City, State, ZIP code or Country:  
Northeast Philadelphia, PA
on Sunday, December 23, 2012

Sunday
Previous Day Next Day
Daily Summary
 ActualAverage (KTTN)Record (KTTN)
Temperature
Mean Temperature °F 33°F  
Max Temperature 45°F 41°F 70°F (1891)
Min Temperature 30°F 25°F 4°F (1989)
Degree Days
Heating Degree Days 28 32  
Month to date heating degree days 657  
Since 1 July heating degree days 1633  
Cooling Degree Days 0 0  
Month to date cooling degree days 0  
Year to date cooling degree days 965  
Growing Degree Days0 (Base °F )  
Moisture
Dew Point 20°F   
Average Humidity 52    
Maximum Humidity 69    
Minimum Humidity 29    
Precipitation
Precipitation 0.00 in 0.12 in 1.55 in (1907)
Month to date precipitation 2.98  
Year to date precipitation 45.72  
Wind
Wind Speed 9 mph   
Max Wind Speed 14 mph   
Max Gust Speed 20 mph   
Visibility 10 miles   
Events     

Key: T is trace of precipitation, MM is missing value
Source: NWS Daily Summary
Time(EST)TemperatureDew PointHumidity Pressure Visibility Wind DirectionWind SpeedGust SpeedPrecipitationEvents Conditions
12:54 AM 35.1°F 21.9°F 59% 29.95 in 10.0 miles WSW 8.1 mph - N/A   Mostly Cloudy
1:54 AM 35.1°F 21.0°F 57% 29.97 in 10.0 miles West 11.5 mph - N/A   Overcast
2:54 AM 35.1°F 21.9°F 59% 29.99 in 10.0 miles West 13.8 mph - N/A   Overcast
3:54 AM 35.1°F 21.0°F 57% 29.99 in 10.0 miles West 10.4 mph - N/A   Overcast
4:54 AM 34.0°F 21.0°F 59% 29.99 in 10.0 miles West 10.4 mph - N/A   Overcast
5:54 AM 32.0°F 21.0°F 64% 30.01 in 10.0 miles WSW 9.2 mph - N/A   Clear
6:54 AM 30.9°F 21.0°F 67% 30.02 in 10.0 miles SW 5.8 mph - N/A   Clear
7:54 AM 30.9°F 21.9°F 69% 30.03 in 10.0 miles SW 6.9 mph - N/A   Clear
8:54 AM 33.1°F 21.9°F 64% 30.04 in 10.0 miles WSW 8.1 mph - N/A   Clear
9:54 AM 37.0°F 23.0°F 57% 30.03 in 10.0 miles West 10.4 mph - N/A   Clear
10:54 AM 39.0°F 21.9°F 50% 30.01 in 10.0 miles West 13.8 mph - N/A   Clear
11:54 AM 41.0°F 18.0°F 40% 29.97 in 10.0 miles West 11.5 mph 19.6 mph N/A   Clear
12:54 PM 43.0°F 17.1°F 35% 29.94 in 10.0 miles WNW 8.1 mph - N/A   Clear
1:54 PM 45.0°F 14.0°F 29% 29.91 in 10.0 miles WSW 10.4 mph - N/A   Clear
2:54 PM 45.0°F 16.0°F 31% 29.91 in 10.0 miles SW 8.1 mph - N/A   Clear
3:54 PM 43.0°F 19.0°F 38% 29.91 in 10.0 miles SSW 9.2 mph - N/A   Clear
4:54 PM 42.1°F 17.1°F 37% 29.92 in 10.0 miles SW 8.1 mph - N/A   Clear
5:54 PM 41.0°F 19.0°F 41% 29.93 in 10.0 miles WSW 10.4 mph - N/A   Clear
6:54 PM 37.9°F 21.0°F 51% 29.95 in 10.0 miles WSW 6.9 mph - N/A   Clear
7:54 PM 37.0°F 21.0°F 52% 29.95 in 10.0 miles WSW 5.8 mph - N/A   Clear
8:54 PM 37.0°F 21.9°F 54% 29.95 in 10.0 miles WSW 3.5 mph - N/A   Clear
9:54 PM 35.1°F 21.9°F 59% 29.96 in 10.0 miles Calm Calm - N/A   Clear
10:54 PM 35.1°F 23.0°F 61% 29.98 in 10.0 miles West 4.6 mph - N/A   Clear
11:54 PM 32.0°F 23.0°F 69% 29.99 in 10.0 miles WSW 3.5 mph - N/A   Clear
Astronomy
Sunrise:07:19 AM (EST) Moon Rise:01:28 PM (EST)12/23
Sunset:04:39 PM (EST) Moon Set:02:59 AM (EST)12/23
Moon Phase
Dec. 23 Dec. 28 Jan. 04 Jan. 11 Jan. 18

Copyright © 2014 The Weather Underground, Inc.